General Aviation Weather

Text Reports

Enter one or more of the following location identifiers separated by a space:

Zip Code, Four-Character ICAO or Three-Character IATA airport codes.

METAR - Aviation Routine Weather Report
KAZE - Hazlehurst, Georgia
Updated at 1:15 PM GMT on October 21, 2014 (9:15 AM EDT):
METAR KAZE 211315Z AUTO 33004KT 10SM CLR 16/15 A3001 RMK AO2 T01640153
TAF - Terminal Area Forecast
KAZE - Hazlehurst, Georgia
Updated at 1:15 PM GMT on October 21, 2014 (9:15 AM EDT):
No TAF is currently available for this location.
Decoded:
No decoded TAF is available.
PIREP - Pilot Weather Report
KAZE - Hazlehurst, Georgia
Updated at 1:15 PM GMT on October 21, 2014 (9:15 AM EDT):
No PIREP is currently available for this location.
AIRMET - Airmens Meteorological Information
KAZE - Hazlehurst, Georgia
Updated at 1:15 PM GMT on October 21, 2014 (9:15 AM EDT):
No AIRMET is currently available for this location.
SIGMET - Significant Meteorological Information
KAZE - Hazlehurst, Georgia
Updated at 1:15 PM GMT on October 21, 2014 (9:15 AM EDT):
No SIGMET is currently available for this location.
NOTAM - Notice to Airmen
KAZE - Hazlehurst, Georgia
Updated at 1:15 PM GMT on October 21, 2014 (9:15 AM EDT):
No NOTAM is currently available for this location.
Forecast Area
KAZE - Hazlehurst, Georgia
Updated at 1:15 PM GMT on October 21, 2014 (9:15 AM EDT):
No NOTAM is currently available for this location.
Aviation Weather Maps